Погода в Кудымкаре

Хотите узнать прогноз погоды в Кудымкаре? Тогда Вам сюда: Погода в Кудымкаре

Поиск расширенной информации на нашем сайте:

Полезная информация:

Новости сайта



02.01.2020
Опубликован Долгосрочный прогноз погоды по городам России и ближнего зарубежья на январь 2020 года.
Карты: Прогноз на январь и февраль 2020 года, Сравнение прогнозируемой аномалии приземной температуры воздуха на январь 2020 года по разным моделям.




Погода в Кудымкаре - сегодня

Время (UTC), дата Ветер
(°,м/с) 
Видим.   Явления Облачность Т
(°С)
Тd
(°С)
f(%) Тe
(°С)
Pmin
(гПа)
dP
(гПа)
Po
(мм)
O2
(г/м3)
Тmin Tmax R s Состояние
почвы
15 29.11.20 100 (В) 4000 м  слаб. снег  10/10 2000 м 
[Ns]
-16 -18.4 82 -16  1052.1  0.7  770  331    -15.2  0.0     
18 29.11.20 220 (ЮЗ) 4000 м  слаб. снег  10/10 2000 м 
[Ns]
-13 -15 85 -13  1051.9  0.2  770  327           
21 29.11.20 150 (ЮВ) 4000 м  слаб. снег  10/10 2000 м 
[As trans]
-12.8 -14.8 85 -13  1052.2  0.2  770  327           
00 30.11.20 140 (ЮВ) 4000 м  слаб. снег  10/10 2000 м 
[Ns]
-13 -15 85 -13  1051.8  -0.4  770  327           
03 30.11.20 140 (ЮВ) 4000 м  слаб. снег  10/10 2000 м 
[Ns]
-12 -13.9 86 -12  1051.9  0.2  770  326  -16    0.0  10  равномерный
сухой снег
100% 
06 30.11.20 140 (ЮВ) 4000 м  снежные зёрна  10/10 300 м 
[Ac cuf]
-11.3 -13 87 -11  1051.9  0.1  770  325           
09 30.11.20 130 (ЮВ) 4000 м  снежные зёрна  10/10 300 м 
[St]
-10.1 -11.5 89 -10  1051.6  -0.2  770  323           
12 30.11.20 170 (Ю) 4000 м  слаб. снег  10/10 300 м 
[St]
-8.6 -9.8 91 -8  1051  -0.4  770  321           
15 30.11.20 140 (ЮВ) 4000 м  слаб. снег  10/10 300 м 
[St]
-7.6 -8.7 92 -7  1050.3  -0.6  769  320    -7.6  0.0     
18 30.11.20 160 (Ю) 4000 м  слаб. снег  10/6 300 м средняя 
[Frnb|Ac As]
-6.4 -7.4 93 -8  1049.3  -0.9  768  318           
21 30.11.20 200 (Ю) 20000 м  {снег}  10/10 300 м 
[Sc]
-6 -6.9 93 -7  1048.7  -0.5  768  317           
00 01.12.20 200 (Ю) 20000 м  {снег}  10/10 300 м 
[Sc]
-5.4 -6.2 94 -7  1048.1  -0.5  768  316           
03 01.12.20 180 (Ю) 20000 м    3/0 верхняя 
[Cs]
-6 -7 93 -7  1047.7  -0.5  767  317  -7.6    0.0  10  равномерный
сухой снег
100% 
06 01.12.20 190 (Ю) 20000 м    1/0 верхняя 
[Ci fib]
-6.7 -7.9 91 -8  1047.9  0.1  767  318           
09 01.12.20 210 (ЮЗ) 20000 м    1/0 верхняя 
[Ci fib]
-5.4 -7.9 83 -7  1047.3  -0.5  767  316           
12 01.12.20 200 (Ю) 20000 м    ясно 
-6.6 -8.1 89 -8  1047  -0.3  767  318           
15 01.12.20 200 (Ю) 20000 м    10/10 300 м 
[Sc]
-6.3 -7.7 90 -8  1046.6  -0.3  767  317    -5.2       
18 01.12.20 210 (ЮЗ) 20000 м    10/10 300 м 
[Sc]
-5.3 -6.8 89 -7  1045.8  -0.3  766  316           
21 01.12.20 210 (ЮЗ) 20000 м    10/10 300 м 
[Sc]
-5.6 -6.9 91 -7  1044.7  -1.1  765  316           
00 02.12.20 200 (Ю) 20000 м    10/10 300 м 
[Sc]
-5.9 -6.8 93 -8  1043.5  -1.2  764  316           
03 02.12.20 210 (ЮЗ) 20000 м    10/10 300 м 
[Sc]
-6.4 -7.3 93 -8  1042.6  -0.9  764  316  -6.4      равномерный
сухой снег
100% 
06 02.12.20 240 (ЮЗ) 20000 м  {снег}  10/10 300 м 
[Sc]
-6.5 -7.6 92 -9  1042  -0.6  763  316  -6.5         
09 02.12.20 230 (ЮЗ) 20000 м    10/10 300 м 
[Sc]
-6.7 -8.3 88 -9  1041.6  -0.5  763  316           
12 02.12.20 240 (ЮЗ) 20000 м    10/10 300 м 
[Sc]
-7.1 -8.6 89 -9  1041.1  -0.5  762  316           
15 02.12.20 210 (ЮЗ) 4000 м  {снег}  10/10 300 м 
[Sc]
-7.4 -8.9 89 -9  1040.6  -0.5  762  317    -6.3  0.0     
Время (UTC), дата Ветер
(°,м/с) 
Видим.   Явления Облачность Т
(°С)
Тd
(°С)
f(%) Тe
(°С)
Pmin
(гПа)
dP
(гПа)
Po
(мм)
O2
(г/м3)
Тmin Tmax R s Состояние
почвы

Для получения пояснительной информации подведите курсор к названию столбца.

ПОГОДА в Кудымкаре - архив

Всё, что Вы хотите узнать о погоде в Кудымкаре - удобно и подробно!

Выберите нужную дату (начиная с 1 января 2019* года) и нажмите кнопку "Найти".
Будут отображены архивные сводки погоды по пункту Кудымкар, начиная с указанной даты.


Отображать данные в формате CSV (для использования в таблицах Excel)


Внимание! Наш архив погоды предназначен исключительно для личного некоммерческого использования в познавательных целях. Если Вам необходимы официальные справки о состоянии погоды (для производственных, юридических, коммерческих и т.п. целей), обращайтесь в органы Росгидромета.

*Примечание: данная дата относится к архиву по метеостанциям СССР (Россия, СНГ, Балтия).
Архив по метеостанциям Зарубежной Европы и Азии (кроме Китая) хранится 10 дней, по другим регионам земного шара (Китай, Африка, Америка, Австралия, Океания) - 1 день.

Кудымкар - район местоположения метеостанции


Название, широта, долгота, высота метеостанции:
Кудымкар 59°ш. 54.6°д. 186 м над ур. моря [Российская Федерация]

Дополнительная информация

В oтличие oт бoльшинства пoгoдных сайтoв мы публикуем пoдрoбную метеoинфoрмацию в детальнoм прoфессиoнальнoм фoрмате.

Характеристики температуры и влажнoсти вoздуха измеряются на высoте 2 м в тени вдали oт зданий и деревьев.
Скoрoсть ветра измеряется на высoте 10 м (на урoвне рoста челoвека скoрoсть ветра ниже в 1.5-2 раза). Если метеoстанция нахoдится в гoрoде или в лесу, тo скoрoсть ветра занижена на 2-4 м/с пo сравнению с oткрытым местoм. Скoрoсть ветра над акватoриями крупных рек и oзёр, а также на вершинах хoлмoв на 2-5 м/с выше, чем в oбычных услoвиях.
Атмoсфернoе давление в разных тoчках местнoсти мoжет значительнo oтличаться oт давления на метеoстанции, в зависимoсти oт услoвий рельефа (при пoдъёме на 10 м давление пoнижается примернo на 1 мм рт.ст.).